Tracking 35055 objects as of 18-Aug-2026
HD Live streaming from Space Station
objects crossing your sky now

SALYUT 7 DEB


SALYUT 7 DEB is no longer on orbit


NORAD ID: 15174
Int'l Code: 1982-033CD
Launch date: April 19, 1982
Source: Commonwealth of Independent States (former USSR) (CIS)
Launch site: TYURATAM MISSILE AND SPACE COMPLEX (TTMTR)
Decay date: 1984-09-14

Note: This is SATELLITE DEBRIS
Your satellite tracking list
Your tracking list is empty




NASA's NSSDC Master Catalog

Two Line Element Set (TLE):
1 15174U 82033 CD 84258.46784767  .37720532 +56455-4 +20479-2 0  9992
2 15174 051.5742 266.0508 0000855 139.9393 220.9258 16.42315557139095
Source of the keplerian elements: AFSPC